Lid_Strength_Index
7 9 10 9 9 8 8 10 11 9 7 8 10 10 9 8 7 6 6 5 5 5 3 2 2 2 2 1 1 1 1 1 1 1 2 2 2 1 1 0 -0 -0 -0 -0
8 10 7 6 7 9 10 10 9 9 7 8 9 11 10 8 7 6 6 6 5 5 4 3 3 2 2 2 1 2 1 1 1 1 1 1 1 1 1 2 2 0 -0 -0
10 8 6 8 9 9 10 12 10 9 8 7 10 12 10 8 6 6 5 5 5 5 4 4 3 3 2 2 2 2 1 1 1 1 1 1 1 1 2 2 2 1 1 -0
9 7 7 9 9 9 13 8 8 8 11 12 9 16 12 10 8 7 6 5 5 5 4 4 3 4 3 2 2 1 1 1 1 1 1 2 2 3 2 1 1 0 1 2
9 8 9 9 8 8 10 7 8 8 10 13 12 14 13 9 10 8 7 6 5 4 4 4 3 4 3 2 2 1 1 1 1 1 1 1 2 2 1 2 1 1 0 0
9 7 9 9 7 8 7 9 9 10 12 15 12 13 13 12 10 8 6 5 5 4 4 3 3 3 3 2 2 1 2 2 1 1 1 1 2 2 2 2 2 2 1 0
9 9 8 8 11 8 9 11 15 15 15 14 12 12 12 8 7 7 6 6 5 4 4 4 4 4 3 2 2 2 2 2 1 1 1 1 2 2 2 2 2 2 1 1
11 13 10 8 10 11 10 11 15 17 16 14 11 13 11 7 6 7 5 5 5 5 4 4 4 4 3 3 2 2 2 2 2 1 1 1 1 1 1 1 1 1 1 1
12 11 8 7 8 9 11 13 11 14 12 14 11 10 8 7 7 6 6 6 5 5 4 4 3 3 3 3 2 2 2 2 2 2 1 1 1 1 1 1 1 1 1 0
10 13 9 9 8 8 10 6 13 13 16 16 14 13 13 10 9 7 7 7 6 5 4 4 4 3 3 2 2 2 2 2 2 1 1 1 1 1 1 1 1 1 1 1
9 11 10 9 9 10 11 12 12 13 13 16 16 14 9 9 8 8 7 6 6 5 5 5 4 3 3 2 2 2 2 2 2 2 1 1 1 1 1 1 1 1 1 1
8 11 13 11 9 7 10 12 11 14 15 14 13 13 7 8 7 7 7 6 5 5 5 5 4 3 3 3 5 4 2 2 2 1 2 1 1 1 1 1 1 1 1 1
9 11 15 13 11 9 11 10 9 11 12 14 14 14 7 8 7 6 7 7 6 5 5 5 4 4 4 3 3 4 4 2 2 2 2 2 2 1 1 1 1 1 1 1
6 11 12 15 13 11 11 10 10 12 14 14 13 12 10 8 8 7 7 6 6 5 6 5 5 4 4 3 4 3 4 3 2 2 2 2 2 2 1 1 1 1 1 1
8 12 11 9 9 9 9 9 9 12 11 13 12 12 9 8 8 7 6 6 6 6 5 5 5 5 4 4 3 2 2 2 2 2 2 2 3 2 1 1 1 1 1 1
8 11 10 11 8 9 10 9 9 9 9 10 11 10 8 8 6 7 6 6 6 6 5 5 6 5 6 6 6 4 3 3 2 3 4 4 4 4 5 2 2 1 1 1
9 10 11 13 9 9 12 9 9 10 9 10 12 10 7 7 8 8 7 6 6 6 5 5 4 4 4 3 3 3 4 5 4 5 4 4 3 2 2 2 4 4 4 3
9 10 11 13 12 16 10 7 7 9 8 8 8 7 7 7 7 6 6 6 6 5 6 6 4 4 3 3 3 3 3 4 5 5 5 5 4 2 2 3 5 5 3 3
8 10 12 13 14 11 9 8 8 9 10 7 8 7 6 6 6 7 5 5 5 4 4 4 3 3 3 5 3 3 3 4 4 4 5 3 3 2 2 2 4 5 4 2
9 9 10 12 15 16 10 7 6 7 12 6 6 7 7 7 10 8 5 4 4 4 4 3 3 3 4 4 2 3 4 5 5 4 3 2 2 2 2 2 5 4 3 3
11 11 12 12 14 11 8 6 6 13 12 6 6 6 7 8 8 6 5 4 4 3 3 3 3 3 3 2 2 4 4 3 2 2 2 2 2 2 2 2 2 2 2 2
12 13 13 12 14 15 6 7 11 8 7 6 6 5 6 6 5 5 4 5 4 4 3 3 4 4 3 2 3 3 3 3 4 4 3 2 2 2 2 2 2 2 3 3
12 9 11 11 11 7 7 7 6 6 6 6 5 5 5 5 5 4 5 4 4 4 3 3 4 4 3 3 3 3 3 2 3 4 5 5 1 2 2 2 2 3 2 3
8 7 10 9 9 7 6 6 5 5 5 5 4 5 5 6 5 5 5 5 4 4 4 3 3 4 4 3 3 4 4 2 3 5 3 2 2 2 2 2 2 2 3 3
8 7 9 9 8 7 6 5 5 4 4 4 4 4 5 5 5 5 5 5 4 4 3 3 3 4 4 3 4 3 2 3 4 3 3 2 2 2 2 2 2 2 2 3
7 8 10 11 7 7 7 5 4 5 5 5 5 5 4 5 5 5 5 4 4 4 3 3 3 3 3 3 2 2 2 2 4 3 3 3 2 3 4 3 3 6 6 5